TimePST,TemperatureF,Dew PointF,Humidity,Sea Level PressureIn,VisibilityMPH,Wind Direction,Wind SpeedMPH,Gust SpeedMPH,PrecipitationIn,Events,Conditions,WindDirDegrees,DateUTC
12:55 AM,51.8,46.4,82,30.06,10.0,Calm,Calm,-,N/A,,Clear,0,2013-03-04 08:55:00
1:58 AM,47.3,45.9,95,30.07,10.0,South,5.8,-,N/A,,Clear,170,2013-03-04 09:58:00
4:19 AM,42.8,42.8,100,30.07,10.0,SW,3.5,-,N/A,,Clear,230,2013-03-04 12:19:00
6:58 AM,43.2,42.8,99,30.10,9.0,Calm,Calm,-,N/A,,Clear,0,2013-03-04 14:58:00
7:58 AM,48.2,47.8,99,30.11,7.0,South,3.5,-,N/A,,Clear,190,2013-03-04 15:58:00
8:58 AM,51.6,47.5,86,30.13,10.0,SSE,5.8,-,N/A,,Clear,160,2013-03-04 16:58:00
9:55 AM,55.4,44.6,67,30.12,10.0,South,4.6,-,N/A,,Clear,190,2013-03-04 17:55:00
10:58 AM,58.6,45.9,63,30.34,10.0,South,5.8,-,N/A,,Clear,190,2013-03-04 18:58:00
11:58 AM,61.2,46.8,59,30.34,10.0,Variable,6.9,-,N/A,,Clear,0,2013-03-04 19:58:00
12:58 PM,63.0,47.3,57,30.30,10.0,West,2.3,-,N/A,,Clear,260,2013-03-04 20:58:00
1:58 PM,64.2,48.7,57,30.26,10.0,SSE,6.9,-,N/A,,Clear,160,2013-03-04 21:58:00
2:58 PM,65.5,48.2,54,30.26,10.0,South,8.1,-,N/A,,Clear,190,2013-03-04 22:58:00
3:58 PM,65.8,48.7,54,30.25,10.0,SSW,6.9,-,N/A,,Clear,200,2013-03-04 23:58:00
4:58 PM,65.1,49.3,56,30.25,10.0,SSW,5.8,-,N/A,,Clear,210,2013-03-05 00:58:00
5:58 PM,60.6,49.1,66,30.24,10.0,SE,8.1,-,N/A,,Clear,130,2013-03-05 01:58:00
6:38 PM,57.2,50.0,77,30.01,6.0,SE,9.2,-,N/A,,Haze,140,2013-03-05 02:38:00
6:58 PM,55.0,49.3,81,30.24,6.0,SE,6.9,-,N/A,,Haze,140,2013-03-05 02:58:00
7:58 PM,53.8,49.3,85,30.25,6.0,SE,6.9,-,N/A,,Haze,130,2013-03-05 03:58:00
8:38 PM,51.8,48.2,88,30.02,4.0,SE,9.2,-,N/A,,Clear,130,2013-03-05 04:38:00
8:58 PM,52.7,49.1,88,30.26,6.0,SE,9.2,-,N/A,,Clear,130,2013-03-05 04:58:00
9:58 PM,53.6,48.4,82,30.02,10.0,ESE,10.4,-,N/A,,Clear,110,2013-03-05 05:58:00
10:58 PM,48.7,46.2,91,30.25,10.0,SSE,8.1,-,N/A,,Clear,150,2013-03-05 06:58:00
11:58 PM,46.4,46.0,99,30.25,10.0,SSE,8.1,-,N/A,,Clear,150,2013-03-05 07:58:00